Location: Vihti�l�
(61.3833°N, 23.0667°E)
Time: 03:27:48
(UTC+00:00)

Cosmos 2184 Rocket - Pass Details

Date: 29 November 2020
Orbit: 958 x 1003 km, 82.9° (Epoch: 22 January)

Event Time Altitude Azimuth Distance (km) Brightness Sun altitude
Rises 04:04:54 0° 187° (S) 3,699 7.1 -20.1°
Reaches altitude 10° 04:07:24 10° 187° (S) 2,759 6.4 -19.8°
Maximum altitude 04:13:45 82° 101° (E) 1,019 4.1 -19.1°
Drops below altitude 10° 04:20:11 10° 15° (NNE) 2,792 6.4 -18.3°
Sets 04:22:44 0° 15° (NNE) 3,746 7.1 -18.0°
